Other Public Products
Issued by NWS Charleston, SC

Current Version | Previous Version | Graphics & Text | Print | Product List | Glossary On
Versions: 1 2 3 4 5 6 7 8 9 10 11 12 13 14 15 16 17 18 19 20 21 22 23 24 25 26 27 28 29 30 31 32 33 34 35 36 37 38 39 40 41 42 43 44 45 46 47 48 49 50
847
FPUS82 KCHS 282312
OPUCHS

TEST...KCHS/KSAV Gateway Observations...TEST
National Weather Service Charleston SC
700 PM EDT TUE MAR 28 2017

NOTE: "fair" indicates few or no clouds below 12,000 feet with no
significant weather and/or obstructions to visibility.

SCZ050-WAZ558-NCZ071-TXZ119-213-PAZ071-DCZ001-FLZ074-172-MI076-
NYZ176-178-MAZ016-IL014-TNZ027-NJZ106-GAZ044-MD014-290000-

...Gateway Observations for Charleston International...

CITY           SKY/WX    TMP DP  RH WIND       PRES   REMARKS
Chas Airport   MOCLDY    70  63  78 SW10      29.91R
Seattle        CLOUDY    52  44  74 S13G24    30.20F
Charlotte      MOCLDY    76  50  40 N9        29.91R
Dallas DFW     PTSUNNY   81  66  60 SE18G26   29.66F
Dallas Love    PTSUNNY   82  64  54 SE18G24   29.68F
Philladelphia  DRIZZLE   51  49  92 N10G23    29.88R FOG
Wash National  CLOUDY    70  54  56 NW12      29.86R
Baltimore      MOCLDY    67  55  65 NW13      29.85R
Miami          PTCLDY    77  65  66 SE10      29.99R
Detroit        PTCLDY    49  37  63 N8        30.13R
Newark         HVY RAIN  42  41  96 NE9       29.90R FOG
Laguardia      LGT RAIN  42  38  85 NE17      29.90R FOG
J F K          LGT RAIN  43  42  97 N9        29.90R VSB 1/2
Boston Logan   NOT AVBL
Ft. Lauderdale PTCLDY    77  65  66 SE10      29.98R
Chicago O`Hare PTSUNNY   44  36  73 NE9       30.16R
Chicago Midway PTSUNNY   45  37  73 NE10G22   30.16R
Houston Bush   MOSUNNY   79  67  66 SE21G29   29.77F
Houston Hobby  PTSUNNY   77  69  76 SE18G28   29.77F
Nashville      MOSUNNY   69  53  56 N12       30.01R
Atlanta        MOSUNNY   77  58  51 NW8       29.95R

$$

GAZ044-118-TXZ119-213-NCZ071-DCZ001-MDZ014-506-PAZ021-071-NJZ106-
NYZ176-178-MAZ106-OHZ011-021-055-MIZ076-KYZ091-ILZ014-INZ047-
MNZ060-ONZ431-290000-

...Gateway Observations for Savannah International...

CITY           SKY/WX    TMP DP  RH WIND       PRES   REMARKS
Savannah Arpt  CLOUDY    82  56  40 W8        29.92R
Atlanta        MOSUNNY   77  58  51 NW8       29.95R
Charlotte      MOCLDY    76  50  40 N9        29.91R
Dallas DFW     PTSUNNY   81  66  60 SE18G26   29.66F
Houston Bush   MOSUNNY   79  67  66 SE21G29   29.77F
Wash National  CLOUDY    70  54  56 NW12      29.86R
Wash Dulles    CLOUDY    66  57  72 N6        29.87R
Baltimore      MOCLDY    67  55  65 NW13      29.85R
Philadelphia   DRIZZLE   51  49  92 N10G23    29.88R FOG
Newark         HVY RAIN  42  41  96 NE9       29.90R FOG
Laguardia      LGT RAIN  42  38  85 NE17      29.90R FOG
J F K          LGT RAIN  43  42  97 N9        29.90R VSB 1/2
Boston         NOT AVBL
Pittsburg      MOCLDY    55  48  77 NW17      29.99R
Akron          CLOUDY    46  40  79 N13       30.07R
Cleveland      MOCLDY    44  36  73 N12       30.13R
Cincinnati     CLOUDY    56  50  80 N8        30.06R
Columbus       CLEAR     54  46  75 N12       30.05R
Detroit        PTCLDY    49  37  63 N8        30.13R
Chicago O`Hare PTSUNNY   44  36  73 NE9       30.16R
Minneapolis    PTSUNNY   64  30  27 NE3       30.12S
Indianapolis   CLOUDY    55  45  68 N9        30.08R
Toronto Canada MOCLDY    41  36  81 N17       30.08R

$$




USA.gov is the U.S. government's official web portal to all federal, state and local government web resources and services.